Simultaneous Nadir Overpasses (SNOs) Predictions

Prediction of SNOs between METOP-B and TERRA Satellite Orbit:

Table of predicted SNOs for the next 14.0 days since TLE Epoch: 12/31/2021
Index Date (METOP-B) Time (METOP-B) Lat,Lon (METOP-B) SZA (METOP-B ) Date (TERRA) Time (TERRA) Lat,Lon (TERRA) SZA (TERRA ) Distance(km) Time Diff (sec)
1 01/02/2022 05:38:05 81.25, 139.04 106.32 01/02/2022 05:38:43 81.24, 138.98 106.32 1.32 38
2 01/02/2022 06:28:44 -81.26, -53.07 73.62 01/02/2022 06:28:09 -81.26, -53.12 73.65 0.99 35
3 01/05/2022 01:12:26 81.25,-154.57 106.00 01/05/2022 01:12:53 81.25,-154.47 106.02 1.75 27
4 01/05/2022 02:03:05 -81.26, 13.36 73.94 01/05/2022 02:02:19 -81.26, 13.47 73.94 1.93 46
5 01/07/2022 20:46:46 81.25, -87.83 105.67 01/07/2022 20:47:03 81.25, -87.98 105.66 2.66 17
6 01/07/2022 21:37:25 -81.27, 80.13 74.27 01/07/2022 21:36:29 -81.27, 79.98 74.31 2.60 56
7 01/10/2022 16:21:06 81.25, -21.50 105.23 01/10/2022 16:21:12 81.25, -21.56 105.22 1.14 6
8 01/10/2022 17:11:45 -81.27, 146.50 74.70 01/10/2022 17:10:38 -81.27, 146.43 74.74 1.22 67
9 01/13/2022 11:04:47 -81.24,-122.81 75.29 01/13/2022 11:05:56 -81.24,-122.83 75.27 0.31 69



Historial Predications of SNOs between METOP-B and TERRA
